Location: Liscomb Game Sanctuary
(45.1633°N, 62.5575°W)
Time: 21:18:12

Spot 2 Rocket - Pass Details

Date: 22 February 2018
Orbit: 758 x 771 km, 98.7° (Epoch: 21 March)

Event Time Altitude Azimuth Distance (km) Brightness Sun altitude
Exits shadow 20:12:22 68° 179° (S) 820 3.5 -26.1°
Maximum altitude 20:13:01 85° 256° (WSW) 772 3.4 -26.2°
Drops below altitude 10° 20:18:07 10° 345° (NNW) 2,312 6.3 -27.1°
Sets 20:20:26 0° 346° (NNW) 3,245 7.1 -27.4°
